Orange, MA

4:30 PM EST on November 22, 2017 (GMT -0500)
Orange Municipal

Weather History for KORE - March, 2011

Change the Weather History Date:

Thursday, March 17, 2011

  Actual Average Record
Temperature  
Mean Temperature 44 °F -  
Max Temperature 60 °F 38 °F 64 °F (2003)
Min Temperature 28 °F 20 °F 3 °F (1997)
Degree Days  
Heating Degree Days 21    
Moisture  
Dew Point 32 °F    
Average Humidity 79    
Maximum Humidity 100    
Minimum Humidity 32    
Precipitation  
Precipitation 0.01 in - - ()
Sea Level Pressure  
Sea Level Pressure 30.06 in    
Wind  
Wind Speed 1 mph (West)    
Max Wind Speed 10 mph    
Max Gust Speed -    
Visibility 6 miles    
Events Fog    
Averages and records for this station are not official NWS values.
T = Trace of Precipitation, MM = Missing Value Source: NWS Daily Summary

Daily Weather History Graph

Daily Weather History Graph

Search for Another Location

Airport or City:

Trip Planner

Search our weather history database for the weather conditions in past years. The results will help you decide how hot, cold, wet, or windy it might be!

Date:

Astronomy

Mar. 17, 2011 Rise Set
Actual Time 6:58 AM EDT 6:57 PM EDT
Civil Twilight 6:30 AM EDT 7:25 PM EDT
Nautical Twilight 5:57 AM EDT 7:58 PM EDT
Astronomical Twilight 5:24 AM EDT 8:31 PM EDT
Moon 4:45 PM EDT (3/17) 5:22 AM EDT (3/17)
Length of Visible Light 12h 55m
Length of Day
11h 59m
Waxing Gibbous, 93% of the Moon is Illuminated
Mar 17
Waxing Gibbous
Mar 19
Full
Mar 26
Last Quarter
Apr 3
New
Apr 11
First Quarter

Hourly Weather History & Observations

Time (EDT) Temp. Windchill Dew Point Humidity Pressure Visibility Wind Dir Wind Speed Gust Speed Precip Events Conditions
12:52 AM 34.0 °F - 34.0 °F 100% 30.04 in 0.2 mi Calm Calm - N/A Fog Fog
1:33 AM 33.8 °F - 33.8 °F 100% 30.02 in 0.2 mi Calm Calm - N/A Fog Fog
1:52 AM 34.0 °F 31.0 °F 34.0 °F 100% 30.04 in 0.8 mi South 3.5 mph - N/A   Overcast
1:58 AM 33.8 °F - 33.8 °F 100% 30.02 in 1.0 mi Calm Calm - N/A   Overcast
2:12 AM 33.8 °F - 33.8 °F 100% 30.02 in 1.5 mi Calm Calm - N/A   Overcast
2:25 AM 33.8 °F - 33.8 °F 100% 30.03 in 1.2 mi Calm Calm - N/A   Overcast
2:29 AM 33.8 °F - 33.8 °F 100% 30.03 in 0.8 mi Calm Calm - N/A   Overcast
2:52 AM 32.0 °F - 32.0 °F 100% 30.04 in 0.5 mi Calm Calm - N/A Fog Fog
3:00 AM 32.0 °F - 32.0 °F 100% 30.03 in 0.5 mi Calm Calm - N/A Fog Fog
3:52 AM 30.9 °F - 30.0 °F 96% 30.05 in 0.2 mi Calm Calm - N/A Fog Light Freezing Fog
4:52 AM 28.9 °F - 28.0 °F 96% 30.07 in 1.0 mi Calm Calm - N/A   Mist
4:56 AM 28.4 °F - 28.4 °F 100% 30.05 in 1.5 mi Calm Calm - N/A   Scattered Clouds
5:04 AM 28.4 °F - 26.6 °F 93% 30.06 in 2.5 mi Calm Calm - N/A   Scattered Clouds
5:13 AM 28.4 °F - 28.4 °F 100% 30.06 in 5.0 mi Calm Calm - N/A   Partly Cloudy
5:52 AM 28.9 °F - 28.0 °F 96% 30.09 in 9.0 mi Calm Calm - N/A   Clear
6:52 AM 28.9 °F - 28.0 °F 96% 30.12 in 8.0 mi Calm Calm - N/A   Clear
7:52 AM 28.9 °F - 28.9 °F 100% 30.14 in 8.0 mi Calm Calm - N/A   Clear
8:52 AM 33.1 °F - 33.1 °F 100% 30.15 in 9.0 mi Calm Calm - N/A   Clear
9:52 AM 41.0 °F 38.0 °F 36.0 °F 82% 30.17 in 10.0 mi NW 4.6 mph - N/A   Clear
10:52 AM 48.9 °F - 34.0 °F 56% 30.15 in 10.0 mi NNW 4.6 mph - N/A   Clear
11:52 AM 50.0 °F - 34.0 °F 54% 30.14 in 10.0 mi Calm Calm - N/A   Clear
12:52 PM 55.0 °F - 33.1 °F 43% 30.11 in 10.0 mi NW 4.6 mph - N/A   Clear
1:52 PM 55.9 °F - 32.0 °F 40% 30.12 in 10.0 mi Variable 5.8 mph - 0.01 in   Clear
2:52 PM 57.9 °F - 30.0 °F 35% 30.08 in 10.0 mi West 10.4 mph - N/A   Clear
3:52 PM 59.0 °F - 28.9 °F 32% 30.06 in 10.0 mi West 10.4 mph - N/A   Clear
4:52 PM 60.1 °F - 30.0 °F 32% 30.06 in 10.0 mi West 8.1 mph - N/A   Clear
5:52 PM 57.9 °F - 28.9 °F 33% 30.04 in 10.0 mi WSW 6.9 mph - N/A   Clear
6:52 PM 51.1 °F - 30.0 °F 44% 30.04 in 10.0 mi SW 5.8 mph - N/A   Clear
7:52 PM 42.1 °F - 34.0 °F 73% 30.05 in 10.0 mi Calm Calm - N/A   Clear
8:52 PM 39.0 °F - 34.0 °F 82% 30.03 in 10.0 mi Calm Calm - N/A   Clear
9:52 PM 37.9 °F - 34.0 °F 86% 30.01 in 10.0 mi Calm Calm - N/A   Clear
10:52 PM 35.1 °F - 32.0 °F 89% 30.00 in 10.0 mi Calm Calm - N/A   Clear
11:52 PM 42.1 °F 40.2 °F 30.9 °F 65% 29.96 in 10.0 mi SSW 3.5 mph - N/A   Clear